| time (UTC) | temp C | wind direction | speed KPH | gust KPH | rain 1hr cm | rain 24hr cm | rain mn cm | humidity % | barometer mb |
| 20260506153009 | 11 | 355 | 0.0 | 4.8 | 0.33 | 0.33 | 0.33 | 81 | 1013.6 |
| 20260506151503 | 11 | 101 | 0.0 | 0.0 | 0.30 | 0.30 | 0.30 | 83 | 1014.2 |
| 20260506150103 | 12 | 63 | 0.0 | 1.6 | 0.03 | 0.03 | 0.03 | 82 | 1015.2 |
| 20260506144607 | 12 | 341 | 0.0 | 1.6 | 0.00 | 0.00 | 0.00 | 82 | 1014.4 |
| 20260506143057 | 12 | 98 | 0.0 | 4.8 | 0.00 | 0.00 | 0.00 | 82 | 1013.1 |
| 20260506141556 | 12 | 90 | 0.0 | 4.8 | 0.00 | 0.00 | 0.00 | 81 | 1013.8 |
| 20260506140054 | 12 | 113 | 0.0 | 1.6 | 0.00 | 0.00 | 0.00 | 82 | 1013.6 |
| 20260506134554 | 11 | 143 | 0.0 | 4.8 | 0.00 | 0.00 | 0.00 | 82 | 1013.1 |
| 20260506133053 | 11 | 8 | 0.0 | 3.2 | 0.00 | 0.00 | 0.00 | 81 | 1012.5 |
| 20260506131648 | 11 | 104 | 0.0 | 1.6 | 0.00 | 0.00 | 0.00 | 81 | 1012.6 |
| 20260506130046 | 11 | 142 | 0.0 | 1.6 | 0.00 | 0.00 | 0.00 | 81 | 1012.3 |
| 20260506124542 | 12 | 194 | 0.0 | 1.6 | 0.00 | 0.00 | 0.00 | 81 | 1012.2 |
| 20260506123039 | -17 | 0.0 | 0.0 | 0.00 | 0.00 | 0.00 | 1012.0 | ||
| 20260506121534 | -17 | 0.0 | 0.0 | 0.00 | 0.00 | 0.00 | 1011.8 | ||
| 20260506120032 | -17 | 0.0 | 0.0 | 0.00 | 0.00 | 0.00 | 1011.7 | ||
| 20260506114527 | -17 | 0.0 | 0.0 | 0.00 | 0.00 | 0.00 | 1011.4 | ||
| 20260506113022 | -17 | 0.0 | 0.0 | 0.00 | 0.00 | 0.00 | 1011.3 | ||
| 20260506111516 | -17 | 0.0 | 0.0 | 0.00 | 0.00 | 0.00 | 1010.8 | ||
| 20260506110014 | -17 | 0.0 | 0.0 | 0.00 | 0.00 | 0.00 | 1010.6 | ||
| 20260506104508 | -17 | 0.0 | 0.0 | 0.00 | 0.00 | 0.00 | 1010.4 | ||
| 20260506103003 | -17 | 0.0 | 0.0 | 0.00 | 0.00 | 0.00 | 1010.1 | ||
| 20260506101559 | -17 | 0.0 | 0.0 | 0.00 | 0.00 | 0.00 | 1010.0 | ||
| 20260506094608 | -17 | 0.0 | 0.0 | 0.00 | 0.00 | 0.00 | 1009.4 | ||
| 20260506093047 | -17 | 0.0 | 0.0 | 0.00 | 0.00 | 0.00 | 1009.4 | ||
| 20260506091545 | 15 | 105 | 0.0 | 3.2 | 0.00 | 0.00 | 0.00 | 76 | 1009.2 |
| 20260506090042 | 15 | 301 | 0.0 | 0.0 | 0.00 | 0.00 | 0.00 | 77 | 1009.2 |
| 20260506084540 | 15 | 352 | 0.0 | 1.6 | 0.00 | 0.00 | 0.00 | 77 | 1009.1 |
| 20260506083041 | 15 | 96 | 0.0 | 1.6 | 0.00 | 0.00 | 0.00 | 77 | 1008.7 |
| 20260506081537 | 15 | 98 | 0.0 | 1.6 | 0.00 | 0.00 | 0.00 | 77 | 1008.9 |
| 20260506073033 | 15 | 20 | 0.0 | 3.2 | 0.00 | 0.00 | 0.00 | 77 | 1008.3 |
| 20260506071530 | 15 | 103 | 0.0 | 3.2 | 0.00 | 0.00 | 0.00 | 78 | 1008.5 |
| 20260506061527 | 16 | 107 | 0.0 | 1.6 | 0.00 | 0.00 | 0.00 | 78 | 1008.3 |
| 20260506044514 | 17 | 57 | 0.0 | 3.2 | 0.00 | 0.00 | 0.00 | 76 | 1008.2 |
| 20260506043009 | 17 | 123 | 0.0 | 1.6 | 0.00 | 0.00 | 0.00 | 76 | 1008.2 |
| 20260506041506 | 18 | 284 | 0.0 | 3.2 | 0.00 | 0.00 | 0.00 | 76 | 1008.2 |
| 20260506040006 | 18 | 155 | 0.0 | 0.0 | 0.00 | 0.00 | 0.00 | 76 | 1008.1 |
| 20260506034605 | 18 | 289 | 0.0 | 1.6 | 0.00 | 0.00 | 0.00 | 75 | 1007.5 |
| 20260506034502 | 18 | 315 | 0.0 | 1.6 | 0.00 | 0.00 | 0.00 | 75 | 1007.5 |
| 20260506033119 | 18 | 120 | 0.0 | 3.2 | 0.00 | 0.00 | 0.00 | 75 | 1007.2 |
| 20260506031554 | 19 | 143 | 0.0 | 1.6 | 0.00 | 0.00 | 0.00 | 75 | 1007.0 |
| 20260506030100 | 20 | 320 | 0.0 | 1.6 | 0.00 | 0.00 | 0.00 | 74 | 1006.9 |
| 20260506024603 | 20 | 324 | 0.0 | 1.6 | 0.00 | 0.00 | 0.00 | 73 | 1006.6 |
| 20260506023046 | 20 | 309 | 0.0 | 4.8 | 0.00 | 0.00 | 0.00 | 72 | 1006.3 |
| 20260506021552 | 20 | 290 | 0.0 | 1.6 | 0.00 | 0.00 | 0.00 | 71 | 1005.8 |
| 20260506020041 | 20 | 218 | 0.0 | 1.6 | 0.00 | 0.00 | 0.00 | 71 | 1005.6 |
| 20260506014537 | 21 | 346 | 0.0 | 1.6 | 0.00 | 0.00 | 0.00 | 71 | 1005.0 |
| 20260506013043 | 21 | 93 | 0.0 | 0.0 | 0.00 | 0.00 | 0.00 | 70 | 1004.8 |
| 20260506011559 | 22 | 129 | 0.0 | 0.0 | 0.00 | 0.00 | 0.00 | 70 | 1004.5 |
| 20260506010034 | 22 | 304 | 0.0 | 1.6 | 0.00 | 0.00 | 0.00 | 68 | 1004.7 |
| 20260506004541 | 22 | 188 | 0.0 | 0.0 | 0.00 | 0.00 | 0.00 | 67 | 1004.3 |
| 20260506003031 | 23 | 122 | 0.0 | 3.2 | 0.00 | 0.00 | 0.00 | 67 | 1003.9 |
| 20260506001532 | 24 | 301 | 0.0 | 1.6 | 0.00 | 0.00 | 0.00 | 65 | 1003.5 |
| 20260506000029 | 25 | 306 | 0.0 | 1.6 | 0.00 | 0.00 | 0.00 | 63 | 1003.5 |
| 20260505234530 | 26 | 290 | 0.0 | 4.8 | 0.00 | 0.00 | 0.00 | 64 | 1003.1 |
| 20260505233033 | 26 | 302 | 0.0 | 3.2 | 0.00 | 0.00 | 0.00 | 60 | 1002.9 |
| 20260505231536 | 27 | 295 | 0.0 | 1.6 | 0.00 | 0.00 | 0.00 | 59 | 1002.8 |
| 20260505230028 | 28 | 308 | 0.0 | 3.2 | 0.00 | 0.00 | 0.00 | 59 | 1002.8 |
| 20260505224525 | 28 | 304 | 0.0 | 1.6 | 0.00 | 0.00 | 0.00 | 54 | 1002.2 |
| 20260505223023 | 29 | 340 | 0.0 | 1.6 | 0.00 | 0.00 | 0.00 | 51 | 1002.3 |
| 20260505221522 | 31 | 121 | 0.0 | 1.6 | 0.00 | 0.00 | 0.00 | 51 | 1002.1 |
| 20260505220042 | 32 | 13 | 0.0 | 1.6 | 0.00 | 0.00 | 0.00 | 48 | 1001.8 |
| 20260505214528 | 32 | 105 | 0.0 | 3.2 | 0.00 | 0.00 | 0.00 | 46 | 1001.9 |
| 20260505213021 | 33 | 173 | 0.0 | 6.4 | 0.00 | 0.00 | 0.00 | 47 | 1001.9 |
| 20260505211517 | 33 | 241 | 0.0 | 3.2 | 0.00 | 0.00 | 0.00 | 49 | 1002.1 |
| 20260505210015 | 33 | 307 | 0.0 | 3.2 | 0.00 | 0.00 | 0.00 | 48 | 1002.3 |
| 20260505204512 | 32 | 260 | 0.0 | 8.0 | 0.00 | 0.00 | 0.00 | 50 | 1002.4 |
| 20260505203012 | 32 | 194 | 0.0 | 4.8 | 0.00 | 0.00 | 0.00 | 52 | 1002.5 |
| 20260505201507 | 32 | 257 | 0.0 | 6.4 | 0.00 | 0.00 | 0.00 | 54 | 1002.8 |
| 20260505200006 | 32 | 139 | 1.6 | 8.0 | 0.00 | 0.00 | 0.00 | 55 | 1002.9 |
| 20260505194501 | 31 | 113 | 0.0 | 9.7 | 0.00 | 0.00 | 0.00 | 58 | 1003.1 |
| 20260505193100 | 31 | 215 | 3.2 | 11.3 | 0.00 | 0.00 | 0.00 | 55 | 1003.0 |
| 20260505191558 | 31 | 276 | 0.0 | 9.7 | 0.00 | 0.00 | 0.00 | 60 | 1002.9 |
| 20260505190053 | 30 | 218 | 0.0 | 6.4 | 0.00 | 0.00 | 0.00 | 61 | 1003.1 |
| 20260505184553 | 28 | 293 | 1.6 | 8.0 | 0.00 | 0.00 | 0.00 | 64 | 1003.3 |
| 20260505183052 | 28 | 211 | 3.2 | 12.9 | 0.00 | 0.00 | 0.00 | 63 | 1003.3 |
| 20260505181544 | 28 | 208 | 1.6 | 9.7 | 0.00 | 0.00 | 0.00 | 66 | 1003.3 |
| 20260505180042 | 27 | 91 | 1.6 | 14.5 | 0.00 | 0.00 | 0.00 | 67 | 1003.4 |
| 20260505174542 | 27 | 241 | 3.2 | 11.3 | 0.00 | 0.00 | 0.00 | 67 | 1003.4 |
| 20260505173039 | 27 | 259 | 1.6 | 11.3 | 0.00 | 0.00 | 0.00 | 67 | 1003.5 |
| 20260505171537 | 27 | 194 | 1.6 | 12.9 | 0.00 | 0.00 | 0.00 | 68 | 1003.6 |
| 20260505170036 | 27 | 174 | 3.2 | 17.7 | 0.00 | 0.00 | 0.00 | 68 | 1003.5 |
| 20260505164552 | 27 | 276 | 3.2 | 11.3 | 0.00 | 0.00 | 0.00 | 69 | 1003.6 |
| 20260505163036 | 26 | 207 | 0.0 | 12.9 | 0.00 | 0.00 | 0.00 | 71 | 1003.4 |
| 20260505161537 | 26 | 153 | 3.2 | 16.1 | 0.00 | 0.00 | 0.00 | 71 | 1003.5 |